New Ulm, MN

11:32 AM CDT on September 25, 2016 (GMT -0500)
New Ulm Municipal

Weather History for KULM - November, 2013

Change the Weather History Date:

Friday, November 29, 2013

  Actual Average Record
Temperature  
Mean Temperature 20 °F -  
Max Temperature 33 °F 34 °F 62 °F (1998)
Min Temperature 6 °F 19 °F -10 °F (1952)
Degree Days  
Heating Degree Days 46    
Moisture  
Dew Point 14 °F    
Average Humidity 74    
Maximum Humidity 92    
Minimum Humidity 52    
Precipitation  
Precipitation 0.00 in - - ()
Sea Level Pressure  
Sea Level Pressure 30.31 in    
Wind  
Wind Speed 6 mph (SSE)    
Max Wind Speed 21 mph    
Max Gust Speed 25 mph    
Visibility 10 miles    
Events      
Averages and records for this station are not official NWS values.
T = Trace of Precipitation, MM = Missing Value Source: NWS Daily Summary

Daily Weather History Graph

Daily Weather History Graph

Search for Another Location

Airport or City:

Trip Planner

Search our weather history database for the weather conditions in past years. The results will help you decide how hot, cold, wet, or windy it might be!

Date:

Astronomy

Nov. 29, 2013 Rise Set
Actual Time 7:31 AM CST 4:40 PM CST
Civil Twilight 6:59 AM CST 5:13 PM CST
Nautical Twilight 6:23 AM CST 5:49 PM CST
Astronomical Twilight 5:48 AM CST 6:24 PM CST
Moon 3:30 AM CST (11/29) 2:32 PM CST (11/29)
Length of Visible Light 10h 14m
Length of Day
9h 09m
Waning Crescent, 14% of the Moon is Illuminated
Nov 29
Waning Crescent
Dec 2
New
Dec 9
First Quarter
Dec 17
Full
Dec 25
Last Quarter

Hourly Weather History & Observations

Time (CST) Temp. Windchill Dew Point Humidity Pressure Visibility Wind Dir Wind Speed Gust Speed Precip Events Conditions
12:13 AM 8.6 °F - 3.2 °F 79% 30.49 in 10.0 mi Calm Calm - N/A   Clear
12:32 AM 8.6 °F - 3.2 °F 79% 30.48 in 10.0 mi Calm Calm - N/A   Clear
12:53 AM 8.6 °F - 5.0 °F 85% 30.48 in 10.0 mi Calm Calm - N/A   Clear
1:13 AM 8.6 °F - 5.0 °F 85% 30.48 in 10.0 mi Calm Calm - N/A   Clear
1:32 AM 8.6 °F - 5.0 °F 85% 30.48 in 10.0 mi Calm Calm - N/A   Clear
1:53 AM 8.6 °F - 5.0 °F 85% 30.48 in 10.0 mi Calm Calm - N/A   Clear
2:13 AM 8.6 °F - 3.2 °F 79% 30.48 in 10.0 mi Calm Calm - N/A   Clear
2:32 AM 6.8 °F - 3.2 °F 85% 30.48 in 10.0 mi Calm Calm - N/A   Clear
2:53 AM 6.8 °F - 3.2 °F 85% 30.48 in 10.0 mi Calm Calm - N/A   Clear
3:13 AM 6.8 °F - 3.2 °F 85% 30.47 in 10.0 mi Calm Calm - N/A   Clear
3:32 AM 6.8 °F - 3.2 °F 85% 30.47 in 10.0 mi Calm Calm - N/A   Clear
3:53 AM 8.6 °F - 3.2 °F 79% 30.46 in 10.0 mi Calm Calm - N/A   Clear
4:12 AM 8.6 °F - 6.8 °F 92% 30.47 in 10.0 mi Calm Calm - N/A   Clear
4:33 AM 10.4 °F - 6.8 °F 85% 30.46 in 10.0 mi Calm Calm - N/A   Clear
4:53 AM 10.4 °F - 6.8 °F 85% 30.46 in 10.0 mi Calm Calm - N/A   Clear
5:12 AM 10.4 °F - 6.8 °F 85% 30.46 in 10.0 mi Calm Calm - N/A   Clear
5:33 AM 8.6 °F 2.0 °F 5.0 °F 85% 30.46 in 10.0 mi SE 3.5 mph - N/A   Clear
5:52 AM 8.6 °F 0.1 °F 5.0 °F 85% 30.46 in 10.0 mi SSE 4.6 mph - N/A   Clear
6:13 AM 8.6 °F -2.6 °F 5.0 °F 85% 30.45 in 10.0 mi SE 6.9 mph - N/A   Clear
6:32 AM 8.6 °F -1.3 °F 6.8 °F 92% 30.45 in 10.0 mi SSE 5.8 mph - N/A   Clear
6:53 AM 10.4 °F -0.4 °F 6.8 °F 85% 30.45 in 10.0 mi SSE 6.9 mph - N/A   Clear
7:13 AM 10.4 °F -1.5 °F 6.8 °F 85% 30.44 in 10.0 mi SSE 8.1 mph - N/A   Clear
7:32 AM 10.4 °F -0.4 °F 6.8 °F 85% 30.43 in 10.0 mi SSE 6.9 mph - N/A   Clear
7:53 AM 10.4 °F -1.5 °F 6.8 °F 85% 30.43 in 10.0 mi SSE 8.1 mph - N/A   Clear
8:13 AM 10.4 °F -2.4 °F 8.6 °F 92% 30.43 in 10.0 mi SSE 9.2 mph - N/A   Clear
8:32 AM 12.2 °F -1.0 °F 8.6 °F 85% 30.43 in 10.0 mi SSE 10.4 mph - N/A   Clear
8:53 AM 14.0 °F 1.2 °F 10.4 °F 86% 30.43 in 10.0 mi South 10.4 mph - N/A   Clear
9:13 AM 15.8 °F 3.4 °F 10.4 °F 79% 30.42 in 10.0 mi South 10.4 mph - N/A   Clear
9:32 AM 19.4 °F 7.9 °F 12.2 °F 74% 30.43 in 10.0 mi South 10.4 mph - N/A   Clear
9:53 AM 21.2 °F 9.5 °F 12.2 °F 68% 30.42 in 10.0 mi South 11.5 mph 17.3 mph N/A   Clear
10:13 AM 21.2 °F 8.9 °F 12.2 °F 68% 30.41 in 10.0 mi South 12.7 mph - N/A   Clear
10:32 AM 24.8 °F 14.6 °F 12.2 °F 59% 30.41 in 10.0 mi SSE 10.4 mph - N/A   Clear
10:53 AM 24.8 °F 14.0 °F 14.0 °F 64% 30.40 in 10.0 mi SSE 11.5 mph - N/A   Clear
11:13 AM 26.6 °F 14.7 °F 15.8 °F 64% 30.39 in 10.0 mi South 15.0 mph - N/A   Clear
11:32 AM 26.6 °F 15.2 °F 15.8 °F 64% 30.37 in 10.0 mi South 13.8 mph - N/A   Clear
11:53 AM 28.4 °F 18.0 °F 15.8 °F 59% 30.35 in 10.0 mi SSE 12.7 mph - N/A   Clear
12:13 PM 28.4 °F 18.5 °F 15.8 °F 59% 30.34 in 10.0 mi South 11.5 mph - N/A   Clear
12:32 PM 33.8 °F 22.8 °F 17.6 °F 52% 30.33 in 10.0 mi South 18.4 mph 23.0 mph N/A   Clear
12:53 PM 33.8 °F 23.9 °F 17.6 °F 52% 30.31 in 10.0 mi South 15.0 mph 24.2 mph N/A   Clear
1:13 PM 33.8 °F 23.2 °F 17.6 °F 52% 30.29 in 10.0 mi South 17.3 mph 21.9 mph N/A   Clear
1:32 PM 33.8 °F 23.2 °F 17.6 °F 52% 30.28 in 10.0 mi SSE 17.3 mph 25.3 mph N/A   Clear
1:53 PM 33.8 °F 22.5 °F 17.6 °F 52% 30.25 in 10.0 mi SSW 19.6 mph 24.2 mph N/A   Clear
2:13 PM 33.8 °F 22.2 °F 17.6 °F 52% 30.26 in 10.0 mi South 20.7 mph - N/A   Clear
2:32 PM 33.8 °F 22.2 °F 17.6 °F 52% 30.24 in 10.0 mi SSE 20.7 mph 25.3 mph N/A   Clear
2:53 PM 33.8 °F 22.8 °F 17.6 °F 52% 30.23 in 10.0 mi SSE 18.4 mph 24.2 mph N/A   Clear
3:13 PM 33.8 °F 22.5 °F 17.6 °F 52% 30.22 in 10.0 mi SSE 19.6 mph 23.0 mph N/A   Clear
3:32 PM 33.8 °F 23.2 °F 17.6 °F 52% 30.21 in 10.0 mi SSE 17.3 mph 24.2 mph N/A   Clear
3:53 PM 33.8 °F 23.2 °F 19.4 °F 56% 30.20 in 10.0 mi SSE 17.3 mph 20.7 mph N/A   Clear
4:13 PM 33.8 °F 23.9 °F 19.4 °F 56% 30.19 in 10.0 mi SSE 15.0 mph 25.3 mph N/A   Clear
4:32 PM 32.0 °F 21.6 °F 19.4 °F 60% 30.18 in 10.0 mi SSE 15.0 mph 19.6 mph N/A   Clear
4:53 PM 32.0 °F 20.5 °F 19.4 °F 60% 30.18 in 10.0 mi SSE 18.4 mph 25.3 mph N/A   Clear
5:13 PM 30.2 °F 18.5 °F 19.4 °F 64% 30.17 in 10.0 mi SSE 17.3 mph - N/A   Clear
5:32 PM 30.2 °F 18.9 °F 19.4 °F 64% 30.16 in 10.0 mi SSE 16.1 mph - N/A   Clear
5:53 PM 28.4 °F 16.2 °F 19.4 °F 69% 30.16 in 10.0 mi SSE 17.3 mph - N/A   Clear
6:13 PM 28.4 °F 16.2 °F 19.4 °F 69% 30.15 in 10.0 mi SSE 17.3 mph 23.0 mph N/A   Clear
6:33 PM 28.4 °F 18.5 °F 19.4 °F 69% 30.16 in 10.0 mi SSE 11.5 mph - N/A   Clear
6:53 PM 28.4 °F 17.5 °F 19.4 °F 69% 30.16 in 10.0 mi South 13.8 mph - N/A   Clear
7:13 PM 28.4 °F 17.5 °F 21.2 °F 74% 30.17 in 10.0 mi South 13.8 mph - N/A   Clear
7:32 PM 26.6 °F 16.8 °F 21.2 °F 80% 30.17 in 10.0 mi South 10.4 mph - N/A   Clear
7:53 PM 26.6 °F 16.8 °F 21.2 °F 80% 30.17 in 10.0 mi SSE 10.4 mph - N/A   Clear
8:13 PM 26.6 °F 16.2 °F 21.2 °F 80% 30.16 in 10.0 mi SSE 11.5 mph - N/A   Clear
8:32 PM 26.6 °F 16.8 °F 21.2 °F 80% 30.14 in 10.0 mi SSE 10.4 mph - N/A   Clear
8:53 PM 26.6 °F 17.5 °F 21.2 °F 80% 30.13 in 10.0 mi SSE 9.2 mph - N/A   Clear
9:13 PM 26.6 °F 16.8 °F 21.2 °F 80% 30.13 in 10.0 mi SSE 10.4 mph - N/A   Clear
9:32 PM 26.6 °F 16.8 °F 21.2 °F 80% 30.12 in 10.0 mi South 10.4 mph - N/A   Clear
9:53 PM 26.6 °F 16.8 °F 21.2 °F 80% 30.12 in 10.0 mi SSE 10.4 mph - N/A   Clear
10:13 PM 26.6 °F 18.2 °F 21.2 °F 80% 30.12 in 10.0 mi SSE 8.1 mph - N/A   Clear
10:32 PM 24.8 °F 16.1 °F 21.2 °F 86% 30.11 in 10.0 mi SSE 8.1 mph - N/A   Clear
10:53 PM 24.8 °F 16.1 °F 21.2 °F 86% 30.11 in 10.0 mi SSE 8.1 mph - N/A   Clear
11:13 PM 24.8 °F 15.3 °F 21.2 °F 86% 30.10 in 10.0 mi SSE 9.2 mph - N/A   Clear
11:32 PM 24.8 °F 16.1 °F 21.2 °F 86% 30.10 in 10.0 mi SSE 8.1 mph - N/A   Clear
11:53 PM 24.8 °F 15.3 °F 21.2 °F 86% 30.09 in 10.0 mi South 9.2 mph - N/A   Clear